TimeMDT,TemperatureF,Dew PointF,Humidity,Sea Level PressureIn,VisibilityMPH,Wind Direction,Wind SpeedMPH,Gust SpeedMPH,PrecipitationIn,Events,Conditions,WindDirDegrees,DateUTC
12:53 AM,46.0,33.1,61,30.03,10.0,West,12.7,-,N/A,,Clear,270,2012-10-31 06:53:00
1:53 AM,44.1,32.0,63,30.03,10.0,West,10.4,-,N/A,,Clear,270,2012-10-31 07:53:00
2:53 AM,43.0,33.1,68,30.04,10.0,West,9.2,-,N/A,,Clear,270,2012-10-31 08:53:00
3:53 AM,42.1,33.1,70,30.03,10.0,West,10.4,-,N/A,,Clear,270,2012-10-31 09:53:00
4:53 AM,42.1,32.0,67,30.03,10.0,West,11.5,-,N/A,,Clear,260,2012-10-31 10:53:00
5:53 AM,42.1,32.0,67,30.05,10.0,West,13.8,-,N/A,,Clear,260,2012-10-31 11:53:00
6:53 AM,44.1,32.0,63,30.06,10.0,WSW,5.8,-,N/A,,Clear,240,2012-10-31 12:53:00
7:53 AM,44.1,32.0,63,30.07,10.0,West,12.7,-,N/A,,Clear,260,2012-10-31 13:53:00
8:53 AM,46.0,34.0,63,30.10,10.0,West,13.8,-,N/A,,Clear,270,2012-10-31 14:53:00
9:53 AM,50.0,34.0,54,30.11,10.0,West,13.8,-,N/A,,Clear,270,2012-10-31 15:53:00
10:53 AM,55.9,34.0,44,30.10,10.0,West,12.7,-,N/A,,Clear,260,2012-10-31 16:53:00
11:53 AM,62.1,33.1,34,30.08,10.0,West,9.2,-,N/A,,Clear,260,2012-10-31 17:53:00
12:53 PM,68.0,30.9,25,30.03,10.0,WNW,15.0,24.2,N/A,,Clear,300,2012-10-31 18:53:00
1:53 PM,70.0,27.0,20,30.01,10.0,NW,15.0,23.0,N/A,,Clear,320,2012-10-31 19:53:00
2:53 PM,71.1,26.1,19,29.99,10.0,WNW,13.8,26.5,N/A,,Clear,300,2012-10-31 20:53:00
3:53 PM,70.0,26.1,19,30.00,10.0,NW,16.1,25.3,N/A,,Clear,320,2012-10-31 21:53:00
4:53 PM,66.9,27.0,22,30.01,10.0,North,10.4,-,N/A,,Clear,350,2012-10-31 22:53:00
5:53 PM,57.0,30.0,36,30.06,10.0,NNE,6.9,-,N/A,,Clear,20,2012-10-31 23:53:00
6:53 PM,52.0,30.0,43,30.08,10.0,NNE,9.2,-,N/A,,Clear,30,2012-11-01 00:53:00
7:53 PM,53.1,28.0,38,30.09,10.0,ENE,8.1,-,N/A,,Clear,60,2012-11-01 01:53:00
8:53 PM,55.0,28.0,35,30.08,10.0,East,4.6,-,N/A,,Clear,100,2012-11-01 02:53:00
9:53 PM,53.1,28.0,38,30.07,10.0,SSE,4.6,-,N/A,,Clear,150,2012-11-01 03:53:00
10:53 PM,46.9,30.0,52,30.08,10.0,South,8.1,-,N/A,,Clear,190,2012-11-01 04:53:00
11:53 PM,46.9,30.0,52,30.06,10.0,SSW,8.1,-,N/A,,Clear,200,2012-11-01 05:53:00